Weather History for Chariton, IA

Change the Weather History Date:

Monday, December 31, 2012

  Actual Average Record
Temperature  
Mean Temperature 28 °F -  
Max Temperature 39 °F 30 °F 63 °F (1965)
Min Temperature 15 °F 13 °F -17 °F (1976)
Degree Days  
Heating Degree Days 37    
Moisture  
Dew Point 16 °F    
Average Humidity 69    
Maximum Humidity 75    
Minimum Humidity 59    
Precipitation  
Precipitation 0.00 in - - ()
Sea Level Pressure  
Sea Level Pressure 30.16 in    
Wind  
Wind Speed 11 mph (NNW)    
Max Wind Speed 15 mph    
Max Gust Speed 16 mph    
Visibility 10 miles    
Events      
Averages and records for this station are not official NWS values.
T = Trace of Precipitation, MM = Missing Value Source: NWS Daily Summary

Daily Weather History Graph

Daily Weather History Graph

Search for Another Location

Airport:

Trip Planner

Search our weather history database for the weather conditions in past years. The results will help you decide how hot, cold, wet, or windy it might be!

Date:

Astronomy

Dec. 31, 2012 Rise Set
Actual Time 7:38 AM CST 4:55 PM CST
Civil Twilight 7:07 AM CST 5:26 PM CST
Nautical Twilight 6:32 AM CST 6:00 PM CST
Astronomical Twilight 5:59 AM CST 6:34 PM CST
Moon 8:28 PM CST (12/31) 9:18 AM CST (12/31)
Length of Visible Light 10h 18m
Length of Day
9h 16m
Waning Gibbous, 90% of the Moon is Illuminated
Dec 31
Waning Gibbous
Jan 4
Last Quarter
Jan 11
New
Jan 18
First Quarter
Jan 26
Full

Hourly Weather History & Observations

Time (CST) Temp. Windchill Dew Point Humidity Pressure Visibility Wind Dir Wind Speed Gust Speed Precip Events Conditions
12:15 AM 39.2 °F 32.0 °F 26.6 °F 61% 30.05 in 10.0 mi WSW 11.5 mph - N/A   Clear
12:35 AM 37.4 °F 30.8 °F 26.6 °F 65% 30.06 in 10.0 mi WSW 9.2 mph - N/A   Clear
12:55 AM 37.4 °F 29.3 °F 26.6 °F 65% 30.06 in 10.0 mi West 12.7 mph - N/A   Clear
1:15 AM 35.6 °F 28.6 °F 26.6 °F 70% 30.06 in 10.0 mi West 9.2 mph - N/A   Clear
1:35 AM 35.6 °F 28.0 °F 26.6 °F 70% 30.08 in 10.0 mi West 10.4 mph - N/A   Clear
1:55 AM 33.8 °F 25.8 °F 26.6 °F 75% 30.09 in 10.0 mi WNW 10.4 mph - N/A   Scattered Clouds
2:15 AM 33.8 °F 25.3 °F 24.8 °F 70% 30.09 in 10.0 mi West 11.5 mph - N/A   Mostly Cloudy
2:35 AM 33.8 °F 26.4 °F 24.8 °F 70% 30.11 in 10.0 mi West 9.2 mph - N/A   Mostly Cloudy
2:55 AM 33.8 °F 26.4 °F 23.0 °F 65% 30.12 in 10.0 mi WNW 9.2 mph - N/A   Mostly Cloudy
3:15 AM 32.0 °F 24.2 °F 23.0 °F 69% 30.11 in 10.0 mi WNW 9.2 mph - N/A   Scattered Clouds
3:35 AM 32.0 °F 23.6 °F 23.0 °F 69% 30.12 in 10.0 mi WNW 10.4 mph - N/A   Mostly Cloudy
3:55 AM 32.0 °F 24.2 °F 21.2 °F 64% 30.12 in 10.0 mi WNW 9.2 mph - N/A   Mostly Cloudy
4:15 AM 30.2 °F 21.9 °F 23.0 °F 75% 30.11 in 10.0 mi WNW 9.2 mph - N/A   Mostly Cloudy
4:35 AM 28.4 °F 18.5 °F 21.2 °F 74% 30.11 in 10.0 mi NNW 11.5 mph - N/A   Scattered Clouds
4:55 AM 28.4 °F 17.5 °F 19.4 °F 69% 30.11 in 10.0 mi NNW 13.8 mph - N/A   Scattered Clouds
5:15 AM 26.6 °F 16.8 °F 17.6 °F 69% 30.12 in 10.0 mi NW 10.4 mph - N/A   Scattered Clouds
5:35 AM 26.6 °F 16.8 °F 17.6 °F 69% 30.13 in 10.0 mi NNW 10.4 mph - N/A   Clear
5:55 AM 26.6 °F 17.5 °F 17.6 °F 69% 30.14 in 10.0 mi NW 9.2 mph - N/A   Clear
6:15 AM 26.6 °F 21.2 °F 17.6 °F 69% 30.14 in 10.0 mi NW 4.6 mph - N/A   Clear
6:55 AM 24.8 °F 16.1 °F 17.6 °F 74% 30.15 in 10.0 mi NW 8.1 mph - N/A   Scattered Clouds
7:15 AM 24.8 °F 14.6 °F 17.6 °F 74% 30.15 in 10.0 mi NNW 10.4 mph - N/A   Clear
7:35 AM 24.8 °F 14.6 °F 15.8 °F 69% 30.16 in 10.0 mi NNW 10.4 mph - N/A   Clear
7:55 AM 24.8 °F 12.9 °F 15.8 °F 69% 30.16 in 10.0 mi NNW 13.8 mph - N/A   Clear
8:15 AM 23.0 °F 12.4 °F 15.8 °F 74% 30.16 in 10.0 mi North 10.4 mph - N/A   Clear
8:35 AM 23.0 °F 11.1 °F 15.8 °F 74% 30.16 in 10.0 mi North 12.7 mph - N/A   Clear
8:55 AM 23.0 °F 11.1 °F 15.8 °F 74% 30.17 in 10.0 mi North 12.7 mph - N/A   Clear
9:15 AM 23.0 °F 11.1 °F 15.8 °F 74% 30.17 in 10.0 mi North 12.7 mph - N/A   Clear
9:35 AM 23.0 °F 11.1 °F 15.8 °F 74% 30.19 in 10.0 mi North 12.7 mph - N/A   Clear
9:55 AM 23.0 °F 11.7 °F 15.8 °F 74% 30.20 in 10.0 mi North 11.5 mph - N/A   Scattered Clouds
10:15 AM 23.0 °F 11.1 °F 15.8 °F 74% 30.19 in 10.0 mi North 12.7 mph - N/A   Clear
10:35 AM 23.0 °F 10.6 °F 15.8 °F 74% 30.20 in 10.0 mi North 13.8 mph - N/A   Clear
10:55 AM 24.8 °F 12.9 °F 15.8 °F 69% 30.20 in 10.0 mi North 13.8 mph - N/A   Clear
11:15 AM 24.8 °F 14.0 °F 15.8 °F 69% 30.20 in 10.0 mi NNW 11.5 mph - N/A   Clear
11:35 AM 24.8 °F 12.4 °F 14.0 °F 64% 30.20 in 10.0 mi North 15.0 mph - N/A   Clear
11:55 AM 24.8 °F 14.0 °F 14.0 °F 64% 30.20 in 10.0 mi North 11.5 mph - N/A   Clear
12:15 PM 23.0 °F 11.7 °F 14.0 °F 68% 30.18 in 10.0 mi North 11.5 mph - N/A   Clear
12:35 PM 23.0 °F 10.1 °F 12.2 °F 63% 30.18 in 10.0 mi NNW 15.0 mph - N/A   Clear
1:35 PM 23.0 °F 11.7 °F 14.0 °F 68% 30.16 in 10.0 mi North 11.5 mph - N/A   Clear
1:55 PM 23.0 °F 10.6 °F 14.0 °F 68% 30.14 in 10.0 mi North 13.8 mph - N/A   Clear
2:15 PM 23.0 °F 11.1 °F 12.2 °F 63% 30.14 in 10.0 mi North 12.7 mph - N/A   Clear
2:35 PM 24.8 °F 12.4 °F 12.2 °F 59% 30.13 in 10.0 mi NNW 15.0 mph - N/A   Clear
2:55 PM 24.8 °F 12.4 °F 12.2 °F 59% 30.13 in 10.0 mi NNW 15.0 mph - N/A   Scattered Clouds
3:15 PM 23.0 °F 11.1 °F 12.2 °F 63% 30.14 in 10.0 mi North 12.7 mph - N/A   Clear
3:35 PM 23.0 °F 11.7 °F 12.2 °F 63% 30.14 in 10.0 mi North 11.5 mph - N/A   Clear
3:55 PM 23.0 °F 11.1 °F 12.2 °F 63% 30.14 in 10.0 mi North 12.7 mph 16.1 mph N/A   Clear
4:15 PM 21.2 °F 9.5 °F 12.2 °F 68% 30.15 in 10.0 mi North 11.5 mph - N/A   Scattered Clouds
4:35 PM 21.2 °F 7.8 °F 12.2 °F 68% 30.15 in 10.0 mi North 15.0 mph - N/A   Mostly Cloudy
4:55 PM 21.2 °F 10.9 °F 12.2 °F 68% 30.16 in 10.0 mi North 9.2 mph - N/A   Overcast
5:15 PM 21.2 °F 10.1 °F 12.2 °F 68% 30.16 in 10.0 mi North 10.4 mph - N/A   Overcast
5:35 PM 21.2 °F 10.9 °F 12.2 °F 68% 30.16 in 10.0 mi North 9.2 mph - N/A   Overcast
5:55 PM 21.2 °F 8.9 °F 12.2 °F 68% 30.17 in 10.0 mi North 12.7 mph - N/A   Overcast
6:15 PM 21.2 °F 11.7 °F 12.2 °F 68% 30.18 in 10.0 mi North 8.1 mph - N/A   Overcast
6:35 PM 19.4 °F 6.6 °F 12.2 °F 74% 30.18 in 10.0 mi North 12.7 mph - N/A   Overcast
6:55 PM 19.4 °F 7.2 °F 12.2 °F 74% 30.18 in 10.0 mi NNW 11.5 mph - N/A   Overcast
7:15 PM 19.4 °F 8.6 °F 12.2 °F 74% 30.19 in 10.0 mi North 9.2 mph - N/A   Overcast
7:35 PM 19.4 °F 10.4 °F 12.2 °F 74% 30.20 in 10.0 mi North 6.9 mph - N/A   Overcast
7:55 PM 19.4 °F 9.5 °F 12.2 °F 74% 30.20 in 10.0 mi NNW 8.1 mph - N/A   Overcast
8:35 PM 19.4 °F 7.9 °F 10.4 °F 68% 30.20 in 10.0 mi NNW 10.4 mph - N/A   Overcast
8:55 PM 19.4 °F 8.6 °F 12.2 °F 74% 30.20 in 10.0 mi NNW 9.2 mph - N/A   Overcast
9:35 PM 19.4 °F 8.6 °F 10.4 °F 68% 30.21 in 10.0 mi NNW 9.2 mph - N/A   Overcast
9:55 PM 19.4 °F 8.6 °F 10.4 °F 68% 30.21 in 10.0 mi North 9.2 mph - N/A   Overcast
10:15 PM 19.4 °F 6.6 °F 8.6 °F 63% 30.21 in 10.0 mi NNW 12.7 mph - N/A   Overcast
10:35 PM 17.6 °F 5.7 °F 8.6 °F 68% 30.22 in 10.0 mi North 10.4 mph - N/A   Overcast
10:55 PM 17.6 °F 3.2 °F 8.6 °F 68% 30.22 in 10.0 mi North 15.0 mph - N/A   Overcast
11:15 PM 17.6 °F 4.3 °F 8.6 °F 68% 30.23 in 10.0 mi North 12.7 mph - N/A   Overcast
11:35 PM 17.6 °F 6.4 °F 8.6 °F 68% 30.23 in 10.0 mi NNW 9.2 mph - N/A   Overcast
11:55 PM 15.8 °F 2.7 °F 8.6 °F 73% 30.22 in 10.0 mi North 11.5 mph - N/A   Overcast